471  
ASUS43 KGLD 251908  
RWRGLD  
 
GOODLAND FORECAST AREA HOURLY WEATHER ROUNDUP  
NATIONAL WEATHER SERVICE GOODLAND KS  
1200 PM MST SAT JAN 25 2020  
   
..OFFICIAL OBSERVATIONS
 
 
 
CITY SKY/WX TMP DP RH WIND PRES REMARKS
 
GOODLAND KS MOSUNNY 54 28 36 NW12 29.95F  
HILL CITY KS SUNNY 39 33 79 VRB3 29.98F  
IMPERIAL NEB MOSUNNY 53 25 33 NW14 29.94F  
MCCOOK NEB MOSUNNY 46 30 53 W8 29.95F  
AKRON CO SUNNY 52 25 35 NW20G30 29.99F  
BURLINGTON CO CLOUDY 53 26 35 NW20G28 29.97F  
LIMON CO MOSUNNY 49 22 34 N18G26 30.02F  

 
   
..UNOFFICIAL OBSERVATIONS
 
 
 
CITY SKY/WX TMP DP RH WIND PRES REMARKS
 
COLBY KS MOSUNNY 52 27 37 N7 29.96F  
SHARON SPRINGS N/A 58 27 30 N14 N/A  

 
 
 
CLICK HERE TO GO TO PREVIOUS BULLETINS.

The Nexlab KS Page
The Nexlab CO Page
The Nexlab NE Page Main Text Page